CW5478 Weather Reports


Display with metric or nautical units.
time (UTC)temp
F
wind
direction
speed
MPH
gust
MPH
rain 1hr
in
rain 24hr
in
rain mn
in
humidity
%
barometer
mb
20260510032306 51 270 6.0 7.0 0.00 0.00 0.00 44 1024.7
20260510031803 51 265 7.0 8.0 0.00 0.00 0.00 43 1024.7
20260510030803 50 225 7.0 8.0 0.00 0.00 0.00 45 1024.7
20260510025804 51 224 6.0 7.0 0.00 0.00 0.00 45 1024.7
20260510025306 51 219 6.0 8.0 0.00 0.00 0.00 43 1024.7
20260510024803 51 222 6.0 8.0 0.00 0.00 0.00 43 1024.7
20260510024303 51 225 7.0 8.0 0.00 0.00 0.00 43 1024.7
20260510023804 51 225 8.0 9.0 0.00 0.00 0.00 45 1024.7
20260510022804 52 247 7.0 8.0 0.00 0.00 0.00 44 1024.6
20260510022306 52 225 7.0 8.0 0.00 0.00 0.00 44 1024.3
20260510021804 52 225 6.0 7.0 0.00 0.00 0.00 42 1024.3
20260510020804 54 270 6.0 7.0 0.00 0.00 0.00 39 1024.3
20260510020303 54 270 6.0 7.0 0.00 0.00 0.00 39 1024.0
20260510015803 54 270 7.0 9.0 0.00 0.00 0.00 39 1024.0
20260510015306 54 270 7.0 8.0 0.00 0.00 0.00 39 1024.0
20260510014803 55 301 6.0 8.0 0.00 0.00 0.00 37 1024.0
20260510014303 56 315 6.0 8.0 0.00 0.00 0.00 34 1024.0
20260510013304 56 270 5.0 6.0 0.00 0.00 0.00 32 1024.0
20260510012804 56 33 2.0 5.0 0.00 0.00 0.00 34 1024.0
20260510011804 57 225 0.0 3.0 0.00 0.00 0.00 34 1023.7
20260510011304 58 225 3.0 5.0 0.00 0.00 0.00 32 1023.7
20260510010805 58 197 1.0 3.0 0.00 0.00 0.00 31 1023.7
20260510010304 59 90 2.0 3.0 0.00 0.00 0.00 29 1023.6
20260510005306 59 90 1.0 10.0 0.00 0.00 0.00 28 1023.3
20260510004804 60 45 6.0 9.0 0.00 0.00 0.00 27 1023.3
20260510004303 60 75 6.0 16.0 0.00 0.00 0.00 26 1023.3
20260510003804 60 92 14.0 22.0 0.00 0.00 0.00 28 1023.0
20260510003303 60 87 5.0 13.0 0.00 0.00 0.00 30 1023.3
20260510002306 62 2 9.0 13.0 0.00 0.00 0.00 23 1023.3
20260510001803 62 0 10.0 17.0 0.00 0.00 0.00 22 1023.3
20260510001304 62 315 17.0 22.0 0.00 0.00 0.00 22 1023.0
20260510000304 62 336 10.0 17.0 0.00 0.00 0.00 19 1023.0
20260509235804 62 315 10.0 14.0 0.00 0.00 0.00 18 1023.0
20260509235307 63 323 9.0 29.0 0.00 0.00 0.00 19 1023.0
20260509234804 63 315 13.0 20.0 0.00 0.00 0.00 21 1022.7
20260509234303 63 324 11.0 16.0 0.00 0.00 0.00 22 1022.7
20260509233304 64 326 5.0 9.0 0.00 0.00 0.00 21 1022.7
20260509232804 64 345 9.0 12.0 0.00 0.00 0.00 20 1022.7
20260509232306 64 322 6.0 10.0 0.00 0.00 0.00 19 1022.7
20260509231804 64 298 7.0 16.0 0.00 0.00 0.00 20 1022.7
20260509231304 63 315 11.0 15.0 0.00 0.00 0.00 20 1022.7
20260509230804 64 315 15.0 21.0 0.00 0.00 0.00 21 1022.7
20260509230304 64 321 13.0 18.0 0.00 0.00 0.00 21 1022.7
20260509225804 65 342 13.0 17.0 0.00 0.00 0.00 20 1022.4
20260509225305 65 315 12.0 15.0 0.00 0.00 0.00 20 1022.7
20260509224803 65 358 9.0 16.0 0.00 0.00 0.00 21 1022.7
20260509224304 64 325 15.0 22.0 0.00 0.00 0.00 21 1022.7
20260509223804 63 1 14.0 21.0 0.00 0.00 0.00 22 1022.4
20260509223304 63 348 15.0 20.0 0.00 0.00 0.00 22 1022.3
20260509222804 64 351 10.0 16.0 0.00 0.00 0.00 21 1022.6
20260509222306 66 336 11.0 16.0 0.00 0.00 0.00 21 1022.7
20260509221803 66 323 14.0 18.0 0.00 0.00 0.00 21 1022.3
20260509221303 66 0 10.0 17.0 0.00 0.00 0.00 21 1022.3
20260509220805 65 325 12.0 16.0 0.00 0.00 0.00 23 1022.4
20260509220304 64 355 12.0 16.0 0.00 0.00 0.00 23 1022.7
20260509215804 63 335 10.0 16.0 0.00 0.00 0.00 23 1022.7
20260509214804 63 321 7.0 15.0 0.00 0.00 0.00 22 1022.7
20260509214304 64 313 7.0 14.0 0.00 0.00 0.00 22 1022.9
20260509213804 64 0 9.0 14.0 0.00 0.00 0.00 21 1022.7
20260509213303 65 350 2.0 16.0 0.00 0.00 0.00 20 1022.9
20260509212803 65 270 19.0 28.0 0.00 0.00 0.00 22 1023.0
20260509211803 64 317 7.0 15.0 0.00 0.00 0.00 22 1023.0
20260509211304 64 300 11.0 18.0 0.00 0.00 0.00 21 1023.0
20260509210805 64 279 9.0 16.0 0.00 0.00 0.00 21 1023.0
20260509210303 65 315 9.0 15.0 0.00 0.00 0.00 21 1023.0
20260509205804 65 264 12.0 21.0 0.00 0.00 0.00 21 1023.0
20260509205307 65 297 15.0 22.0 0.00 0.00 0.00 21 1023.0
20260509204804 65 315 12.0 18.0 0.00 0.00 0.00 21 1023.0
20260509204303 65 278 10.0 17.0 0.00 0.00 0.00 20 1023.0
20260509203304 65 270 17.0 28.0 0.00 0.00 0.00 20 1023.0
20260509202804 64 321 12.0 23.0 0.00 0.00 0.00 20 1023.2
20260509201303 64 299 13.0 24.0 0.00 0.00 0.00 20 1023.3
20260509200304 64 311 15.0 25.0 0.00 0.00 0.00 21 1023.6
20260509195804 64 289 8.0 21.0 0.00 0.00 0.00 21 1023.6
20260509194803 64 279 14.0 22.0 0.00 0.00 0.00 22 1023.6
20260509194304 65 273 19.0 28.0 0.00 0.00 0.00 22 1023.7
20260509193303 64 323 13.0 22.0 0.00 0.00 0.00 22 1023.6
20260509192306 64 305 15.0 23.0 0.00 0.00 0.00 23 1023.4
20260509191803 64 315 15.0 30.0 0.00 0.00 0.00 23 1023.4
20260509191304 63 311 14.0 23.0 0.00 0.00 0.00 24 1023.7
20260509190803 63 316 18.0 26.0 0.00 0.00 0.00 24 1023.7
20260509190304 63 277 14.0 25.0 0.00 0.00 0.00 24 1023.8
20260509185804 63 270 18.0 26.0 0.00 0.00 0.00 25 1023.7
20260509185306 63 276 11.0 22.0 0.00 0.00 0.00 25 1023.9
20260509184804 62 276 23.0 37.0 0.00 0.00 0.00 25 1023.5
20260509184304 62 315 7.0 26.0 0.00 0.00 0.00 25 1023.6
20260509183804 63 283 10.0 20.0 0.00 0.00 0.00 27 1023.9
20260509182803 62 317 9.0 20.0 0.00 0.00 0.00 26 1024.0
20260509182306 61 297 16.0 29.0 0.00 0.00 0.00 26 1023.4
20260509181804 61 8 12.0 18.0 0.00 0.00 0.00 26 1024.0
20260509181304 61 329 12.0 24.0 0.00 0.00 0.00 26 1024.0
20260509180803 62 333 11.0 25.0 0.00 0.00 0.00 26 1024.3
20260509175804 62 0 11.0 21.0 0.00 0.00 0.00 27 1024.3
20260509174804 60 321 11.0 18.0 0.00 0.00 0.00 26 1024.3
20260509174304 60 225 13.0 29.0 0.00 0.00 0.00 26 1024.3
20260509173804 60 270 14.0 23.0 0.00 0.00 0.00 27 1024.3
20260509173304 61 324 16.0 24.0 0.00 0.00 0.00 28 1024.1
20260509172804 60 284 14.0 21.0 0.00 0.00 0.00 28 1024.0
20260509171804 60 323 2.0 6.0 0.00 0.00 0.00 33 1024.3
20260509171304 60 226 6.0 12.0 0.00 0.00 0.00 33 1024.3
20260509170804 62 325 7.0 12.0 0.00 0.00 0.00 31 1024.3
20260509170307 62 57 5.0 10.0 0.00 0.00 0.00 31 1024.3
20260509165804 61 180 2.0 5.0 0.00 0.00 0.00 32 1024.3
20260509165306 61 315 2.0 8.0 0.00 0.00 0.00 33 1024.4
20260509164804 61 14 7.0 10.0 0.00 0.00 0.00 34 1024.7
20260509164304 61 7 6.0 10.0 0.00 0.00 0.00 35 1024.7
20260509162804 60 349 2.0 10.0 0.00 0.00 0.00 37 1024.7
20260509161804 58 0 1.0 7.0 0.00 0.00 0.00 40 1024.7
20260509160803 58 45 2.0 6.0 0.00 0.00 0.00 44 1024.7
20260509160303 57 53 1.0 8.0 0.00 0.00 0.00 46 1024.7
20260509155804 56 33 5.0 9.0 0.00 0.00 0.00 48 1024.7
20260509155306 55 32 7.0 9.0 0.00 0.00 0.00 50 1024.7
20260509154303 54 80 5.0 8.0 0.00 0.00 0.00 53 1024.4
20260509153804 54 90 3.0 7.0 0.00 0.00 0.00 54 1024.6
20260509153304 53 74 6.0 10.0 0.00 0.00 0.00 55 1024.3
20260509152803 53 99 3.0 7.0 0.00 0.00 0.00 55 1024.4
20260509152305 53 90 3.0 8.0 0.00 0.00 0.00 56 1024.3
20260509151803 53 90 6.0 9.0 0.00 0.00 0.00 56 1024.7
20260509151303 53 83 5.0 6.0 0.00 0.00 0.00 55 1024.3
20260509150804 53 90 4.0 7.0 0.00 0.00 0.00 55 1024.7
20260509150304 52 83 4.0 9.0 0.00 0.00 0.00 54 1024.6
20260509145804 52 52 6.0 8.0 0.00 0.00 0.00 56 1024.7
20260509145306 51 45 3.0 5.0 0.00 0.00 0.00 57 1024.7
20260509144804 50 47 2.0 6.0 0.00 0.00 0.00 57 1024.7
20260509143304 51 45 3.0 6.0 0.00 0.00 0.00 56 1024.7
20260509142804 52 45 7.0 8.0 0.00 0.00 0.00 54 1024.7
20260509142302 52 45 6.0 7.0 0.00 0.00 0.00 52 1024.7
20260509141803 52 0 0.0 2.0 0.00 0.00 0.00 51 1024.7
20260509141302 53 18 5.0 6.0 0.00 0.00 0.00 51 1024.7
20260509140802 53 45 4.0 6.0 0.00 0.00 0.00 50 1024.6
20260509140303 54 45 3.0 6.0 0.00 0.00 0.00 49 1024.3
20260509135802 54 0 5.0 9.0 0.00 0.00 0.00 48 1024.1
20260509135305 55 0 7.0 10.0 0.00 0.00 0.00 48 1024.3
20260509134302 54 304 4.0 16.0 0.00 0.00 0.00 45 1024.1
20260509133303 51 357 7.0 10.0 0.00 0.00 0.00 51 1024.3
20260509132802 50 270 8.0 10.0 0.00 0.00 0.00 52 1024.1
20260509132306 50 292 4.0 7.0 0.00 0.00 0.00 51 1024.1
20260509131802 51 315 5.0 8.0 0.00 0.00 0.00 50 1024.1
20260509131303 52 340 4.0 8.0 0.00 0.00 0.00 48 1024.0
20260509130803 53 0 3.0 7.0 0.00 0.00 0.00 45 1024.0
20260509130302 52 225 5.0 7.0 0.00 0.00 0.00 45 1024.0
20260509125307 50 247 4.0 6.0 0.00 0.00 0.00 48 1024.0
20260509124803 49 270 1.0 2.0 0.00 0.00 0.00 48 1023.7
20260509124302 48 270 1.0 5.0 0.00 0.00 0.00 50 1023.7
20260509123803 48 270 4.0 6.0 0.00 0.00 0.00 50 1023.7
20260509123302 48 0 3.0 6.0 0.00 0.00 0.00 49 1023.7
20260509122802 47 315 5.0 6.0 0.00 0.00 0.00 50 1023.3
20260509122305 47 270 6.0 8.0 0.00 0.00 0.00 51 1023.3
20260509121302 44 270 6.0 8.0 0.00 0.00 0.00 59 1023.1
20260509120803 44 315 3.0 8.0 0.00 0.00 0.00 58 1023.0
20260509120303 45 312 1.0 10.0 0.00 0.00 0.00 56 1023.0
20260509115802 45 325 4.0 5.0 0.00 0.00 0.00 54 1023.0
20260509115306 45 287 4.0 6.0 0.00 0.00 0.00 55 1023.0
20260509114803 44 270 6.0 8.0 0.00 0.00 0.00 57 1023.0
20260509114302 44 270 5.0 6.0 0.00 0.00 0.00 57 1023.0
20260509113803 45 284 4.0 6.0 0.00 0.00 0.00 55 1023.0
20260509112803 48 315 3.0 6.0 0.00 0.00 0.00 48 1023.0
20260509112306 49 0 6.0 12.0 0.00 0.00 0.00 42 1023.0
20260509111802 50 261 11.0 18.0 0.00 0.00 0.00 41 1023.0
20260509111303 50 245 13.0 21.0 0.00 0.00 0.00 41 1022.8
20260509110803 50 270 10.0 15.0 0.00 0.00 0.00 40 1023.0
20260509110302 51 257 10.0 16.0 0.00 0.00 0.00 40 1023.0
20260509105802 50 270 13.0 16.0 0.00 0.00 0.00 41 1022.8
20260509105306 49 269 12.0 18.0 0.00 0.00 0.00 42 1022.9
20260509104803 48 270 10.0 15.0 0.00 0.00 0.00 44 1022.7
20260509104303 49 261 10.0 12.0 0.00 0.00 0.00 44 1022.7
20260509103302 45 234 8.0 9.0 0.00 0.00 0.00 56 1022.7
20260509102802 44 270 4.0 7.0 0.00 0.00 0.00 58 1022.7
20260509102305 44 315 3.0 8.0 0.00 0.00 0.00 58 1022.8
20260509101802 43 250 5.0 7.0 0.00 0.00 0.00 60 1022.9
20260509101302 43 225 5.0 6.0 0.00 0.00 0.00 61 1022.7
20260509100802 43 211 2.0 3.0 0.00 0.00 0.00 62 1022.7
20260509095306 42 217 6.0 7.0 0.00 0.00 0.00 63 1022.7
20260509094802 42 225 5.0 8.0 0.00 0.00 0.00 63 1023.0
20260509094302 42 225 4.0 6.0 0.00 0.00 0.00 63 1023.0
20260509092802 41 269 3.0 6.0 0.00 0.00 0.00 66 1023.0
20260509092305 41 225 2.0 6.0 0.00 0.00 0.00 66 1023.0
20260509091803 41 248 5.0 8.0 0.00 0.00 0.00 66 1023.0
20260509091302 41 225 9.0 10.0 0.00 0.00 0.00 65 1022.7
20260509090803 42 225 8.0 9.0 0.00 0.00 0.00 64 1022.7
20260509085802 43 270 4.0 7.0 0.00 0.00 0.00 64 1023.0
20260509085306 42 270 2.0 3.0 0.00 0.00 0.00 65 1023.0
20260509084802 42 240 3.0 7.0 0.00 0.00 0.00 65 1023.0
20260509084302 42 270 6.0 8.0 0.00 0.00 0.00 63 1023.0
20260509083803 42 270 6.0 7.0 0.00 0.00 0.00 63 1023.0
20260509081803 42 225 6.0 8.0 0.00 0.00 0.00 64 1023.0
20260509080803 43 225 7.0 7.0 0.00 0.00 0.00 63 1023.0
20260509080303 43 247 6.0 7.0 0.00 0.00 0.00 64 1023.2
20260509075802 43 247 5.0 8.0 0.00 0.00 0.00 64 1023.3
20260509075306 43 270 6.0 8.0 0.00 0.00 0.00 64 1023.3
20260509074803 43 270 6.0 7.0 0.00 0.00 0.00 64 1023.3
20260509074303 43 270 7.0 8.0 0.00 0.00 0.00 64 1023.3
20260509073303 43 292 4.0 8.0 0.00 0.00 0.00 65 1023.7
20260509072803 42 270 6.0 8.0 0.00 0.00 0.00 66 1023.7
20260509071303 43 270 6.0 8.0 0.00 0.00 0.00 66 1023.9
20260509070803 43 270 7.0 9.0 0.00 0.00 0.00 65 1023.8
20260509070303 44 270 7.0 8.0 0.00 0.00 0.00 64 1024.0
20260509065802 44 270 6.0 8.0 0.00 0.00 0.00 64 1024.0
20260509065306 44 270 6.0 7.0 0.00 0.00 0.00 64 1024.0
20260509064803 44 277 6.0 8.0 0.00 0.00 0.00 64 1024.0
20260509064302 44 270 6.0 8.0 0.00 0.00 0.00 64 1024.2
20260509063803 45 270 5.0 7.0 0.00 0.00 0.00 63 1024.0
20260509063303 45 270 5.0 7.0 0.00 0.00 0.00 63 1024.0
20260509062305 45 270 6.0 7.0 0.00 0.00 0.00 63 1024.1
20260509061803 45 270 6.0 8.0 0.00 0.00 0.00 63 1024.0
20260509061303 45 270 6.0 7.0 0.00 0.00 0.00 63 1024.3
20260509060856 46 270 5.0 6.0 0.00 0.00 0.00 63 1024.3
20260509060303 46 270 5.0 6.0 0.00 0.00 0.00 63 1024.1
20260509055803 45 270 5.0 8.0 0.00 0.00 0.00 65 1024.3
20260509054803 44 232 8.0 9.0 0.00 0.00 0.00 65 1024.3
20260509054303 46 225 7.0 10.0 0.00 0.00 0.00 61 1024.3
20260509053803 48 203 5.0 9.0 0.00 0.00 0.00 59 1024.3
20260509053302 48 270 3.0 3.0 0.00 0.00 0.00 60 1024.3
20260509052803 46 270 3.0 5.0 0.00 0.00 0.00 63 1024.2
20260509052306 45 263 5.0 7.0 0.00 0.00 0.00 66 1024.3
20260509051803 45 225 5.0 6.0 0.00 0.00 0.00 66 1024.3
20260509051303 46 270 5.0 6.0 0.00 0.00 0.00 65 1024.3
20260509050303 47 270 4.0 6.0 0.00 0.00 0.00 63 1024.3
20260509045803 47 225 7.0 8.0 0.00 0.00 0.00 64 1024.3
20260509045306 46 225 6.0 7.0 0.00 0.00 0.00 65 1024.7
20260509044302 47 222 4.0 7.0 0.00 0.00 0.00 64 1024.7
20260509043802 48 180 5.0 6.0 0.00 0.00 0.00 63 1024.5
20260509043302 48 243 6.0 7.0 0.00 0.00 0.00 62 1024.7
20260509042306 48 270 7.0 8.0 0.00 0.00 0.00 62 1024.3
20260509041803 48 270 7.0 8.0 0.00 0.00 0.00 62 1024.5
20260509041303 48 270 7.0 8.0 0.00 0.00 0.00 62 1024.3
20260509040804 48 270 8.0 10.0 0.00 0.00 0.00 62 1024.3
20260509040303 48 270 8.0 10.0 0.00 0.00 0.00 62 1024.3
20260509035802 49 270 7.0 9.0 0.00 0.00 0.00 61 1024.3
20260509035306 49 270 6.0 8.0 0.00 0.00 0.00 60 1024.3
20260509034803 50 270 7.0 8.0 0.00 0.00 0.00 60 1024.3
20260509034303 50 270 7.0 9.0 0.00 0.00 0.00 60 1024.3
20260509033802 50 270 6.0 8.0 0.00 0.00 0.00 58 1024.3
20260509033303 52 270 6.0 7.0 0.00 0.00 0.00 54 1024.3
20260509032803 52 345 3.0 5.0 0.00 0.00 0.00 53 1024.2